Regional Weather Roundup
Issued by NWS

Home | Current Version | Previous Version | Graphics & Text | Print | Product List | Glossary Off
Versions: 1 2 3 4 5 6 7 8 9 10 11 12 13 14 15 16 17 18 19 20 21 22 23 24 25 26 27 28 29 30 31 32 33 34 35 36 37 38 39 40 41 42 43 44 45 46 47 48 49 50

000
ASUS45 KBOU 130810
RWRCO

WEATHER ROUNDUP FOR COLORADO
NATIONAL WEATHER SERVICE DENVER/BOULDER CO
200 AM MDT SUN JUL 13 2014

NOTE: "FAIR" INDICATES FEW OR NO CLOUDS BELOW 12000 FEET WITH NO
SIGNIFICANT WEATHER AND/OR OBSTRUCTIONS TO VISIBILITY.

COZ001>005-013-030-031-130900-
...NORTHWEST COLORADO...

CITY           SKY/WX    TMP DP  RH WIND       PRES   REMARKS
CRAIG          PTCLDY    54  54 100 CALM      30.34S
HAYDEN         PTCLDY    61  48  63 CALM      30.37R
MEEKER         CLEAR     61  51  70 SE5       30.34R
MOUNT WERNER   NOT AVBL
STEAMBOAT SPGS PTCLDY    57  48  73 W3        30.39S
WALDEN         PTCLDY    52  46  82 SW5       30.50S
$$

COZ006>008-011-130900-
...WEST CENTRAL VALLEYS...

CITY           SKY/WX    TMP DP  RH WIND       PRES   REMARKS
GRAND JUNCTION PTCLDY    77  48  35 SE9       30.17S
MONTROSE       CLEAR     71  52  50 E20G26    30.28R
EAGLE          PTCLDY    63  55  77 CALM      30.39R
RIFLE          CLEAR     66  56  70 SE5       30.25S
DELTA          CLEAR     74  51  44 NE5       30.23S
NUCLA          CLEAR     68  48  49 E10       30.30S
$$

COZ017>023-064>068-130900-
...SOUTHWEST COLORADO...

CITY           SKY/WX    TMP DP  RH WIND       PRES   REMARKS
DURANGO        PTCLDY    61  51  70 NW3       30.35R
CORTEZ         PTCLDY    66  51  58 E5        30.26R
PAGOSA SPRINGS PTCLDY    63  46  55 NW3       30.42F
TELLURIDE      PTCLDY    55  48  76 SE7       30.52R
WOLF CREEK PAS NOT AVBL
$$

COZ009-010-012-014-032>034-037-058>063-130900-
...CENTRAL COLORADO...

CITY           SKY/WX    TMP DP  RH WIND       PRES   REMARKS
ASPEN          PTCLDY    57  48  72 S6        30.44R
BUENA VISTA    CLOUDY    57  54  88 NW3       30.52F
COPPER MTN     CLOUDY    50  41  71 W7        30.77S
BERTHOUD PASS  MOCLDY    39  27  60 SE16      30.81F
COTTONWOOD PAS CLOUDY    54  50  87 CALM      30.64F
GUNNISON       PTCLDY    55  48  76 N6        30.50R
KREMMLING      PTCLDY    55  52  88 CALM      30.47S
LEADVILLE      PTCLDY    46  45  96 CALM      30.63S
MONARCH PASS   FOG       43  43 100 E16       30.85S VSB<1/4
SALIDA         MOCLDY    59  54  81 SW5       30.57S
SUNLIGHT       CLEAR     54  48  82 NE7       30.67S
WILKERSON PASS CLOUDY    45  43  93 W8        30.74S
$$

COZ069>075-130900-
...SAN LUIS VALLEY/SANGRE DE CRISTO MOUNTAINS...

CITY           SKY/WX    TMP DP  RH WIND       PRES   REMARKS
ALAMOSA        CLOUDY    58  51  78 SE8       30.45S
LA VETA PASS   CLOUDY    46  43  87 CALM      30.63F
SAGUACHE       NOT AVBL
$$

COZ035-036-038>040-130900-
...NORTHERN COLORADO FRONT RANGE...

CITY           SKY/WX    TMP DP  RH WIND       PRES   REMARKS
DENVER INTL AP PTCLDY    60  57  89 SW5       30.33F
DMNS CITY PARK   N/A     62  57  84 S3        30.33S
AURORA         PTCLDY    61  58  91 S6        30.36F
FRONT RANGE AP NOT AVBL
ERIE MUNI ARPT PTCLDY    59  57  91 CALM      30.32F
BOULDER MUN AP PTCLDY    63  59  88 CALM      30.33F
CENTENNIAL     MOCLDY    61  56  83 CALM      30.36S
BROOMFIELD     PTCLDY    64  55  72 N10       30.35F
FORT COLLINS   CLEAR     63  61  94 N7        30.33S
LONGMONT       CLEAR     63  59  86 NW3       30.33F
$$

COZ041-046-047-076>085-087-088-130900-
...PIKES PEAK/PALMER DIVIDE AND SOUTHERN FOOTHILLS...

CITY           SKY/WX    TMP DP  RH WIND       PRES   REMARKS
COLO. SPRINGS  CLOUDY    61  57  87 N6        30.39F
A. F. ACADEMY  NOT AVBL
ELLICOTT       CLOUDY    60  57  89 CALM      30.38F
FALCON         CLOUDY    58  55  89 NW6       30.44S
FORT CARSON    NOT AVBL
LIMON          CLOUDY    64  62  93 CALM      30.34S
MONUMENT HILL  MOCLDY    55  54  94 W3        30.43S
TRINIDAD       CLOUDY    62  59  90 W7        30.36F
$$

COZ042>045-048>051-090-091-130900-
...NORTHEAST COLORADO...

CITY           SKY/WX    TMP DP  RH WIND       PRES   REMARKS
GREELEY ARPT   NOT AVBL
AKRON          PTCLDY    64  61  90 W8        30.29F
BURLINGTON     CLOUDY    68  60  75 SW14G23   30.27R
WRAY             N/A     66  66 100 W3        30.23R
STERLING       PTCLDY    64  63  94 CALM      30.24S
HOLYOKE        PTCLDY    63  59  88 W3        30.21F
FORT MORGAN    PTCLDY    65  59  81 MISG      30.29S
$$

COZ086-089-092>099-130900-
...SOUTHEAST COLORADO...

CITY           SKY/WX    TMP DP  RH WIND       PRES   REMARKS
PUEBLO         CLOUDY    65  64  97 E5        30.31F
LA JUNTA       CLOUDY    65  63  93 NW9       30.26F
LAMAR          LGT RAIN  66  63  90 N8        30.22R
SPRINGFIELD      N/A     65  61  87 NW9       30.24F
$$



USA.gov is the U.S. government's official web portal to all federal, state and local government web resources and services.